Indianapolis Mount Comfort, IN

10:09 PM EST on December 10, 2019 (GMT -0500)
Mount Comfort

Weather History for KMQJ - May, 2019

Change the Weather History Date:

Monday, May 13, 2019

  Actual Average (WUND) Record (WUND)
Temperature  
Mean Temperature 48 °F -  
Max Temperature 55 °F - - (-1)
Min Temperature 42 °F - - (-1)
Degree Days  
Heating Degree Days 16    
Moisture  
Dew Point 46 °F    
Average Humidity 94    
Maximum Humidity 100    
Minimum Humidity 77    
Precipitation  
Precipitation 0.00 in - - ()
Sea Level Pressure  
Sea Level Pressure 29.89 in    
Wind  
Wind Speed 9 mph (WNW)    
Max Wind Speed 14 mph    
Max Gust Speed 17 mph    
Visibility 8 miles    
Events      
Averages and records for this station are not official NWS values.
T = Trace of Precipitation, MM = Missing Value Source: NWS Daily Summary

Daily Weather History Graph

Daily Weather History Graph

Search for Another Location

Airport or City:

Astronomy

May. 13, 2019 Rise Set
Actual Time 6:30 AM EDT 8:49 PM EDT
Civil Twilight 6:00 AM EDT 9:20 PM EDT
Nautical Twilight 5:23 AM EDT 9:57 PM EDT
Astronomical Twilight 4:42 AM EDT 10:38 PM EDT
Moon 3:01 PM EDT (5/13) 3:48 AM EDT (5/13)
Length of Visible Light 15h 19m
Length of Day
14h 18m
Waxing Gibbous, 68% of the Moon is Illuminated
May 13
Waxing Gibbous
May 18
Full
May 26
Last Quarter
Jun 3
New
Jun 10
First Quarter

Hourly Weather History & Observations

Time (EDT) Temp. Windchill Dew Point Humidity Pressure Visibility Wind Dir Wind Speed Gust Speed Precip Events Conditions
12:16 AM 46.4 °F 43.5 °F 46.4 °F 100% 29.80 in 7.0 mi West 5.8 mph - N/A   Overcast
12:35 AM 46.4 °F 42.9 °F 46.4 °F 100% 29.79 in 10.0 mi West 6.9 mph - N/A   Overcast
12:55 AM 46.4 °F 42.9 °F 46.4 °F 100% 29.80 in 10.0 mi West 6.9 mph - N/A   Overcast
1:15 AM 46.4 °F 42.9 °F 46.4 °F 100% 29.79 in 10.0 mi West 6.9 mph - N/A   Overcast
1:35 AM 46.4 °F 41.5 °F 46.4 °F 100% 29.79 in 7.0 mi West 10.4 mph - N/A   Overcast
1:55 AM 46.4 °F 42.4 °F 46.4 °F 100% 29.79 in 3.0 mi West 8.1 mph - N/A   Overcast
2:15 AM 46.4 °F 42.4 °F 46.4 °F 100% 29.79 in 3.0 mi West 8.1 mph - N/A   Overcast
2:35 AM 46.4 °F 42.9 °F 46.4 °F 100% 29.78 in 3.0 mi West 6.9 mph - N/A   Overcast
2:55 AM 46.4 °F 42.4 °F 46.4 °F 100% 29.78 in 7.0 mi WNW 8.1 mph - N/A   Overcast
3:15 AM 46.4 °F 41.5 °F 46.4 °F 100% 29.78 in 5.0 mi WNW 10.4 mph - N/A   Overcast
3:36 AM 46.4 °F 41.1 °F 46.4 °F 100% 29.78 in 5.0 mi WNW 11.5 mph - N/A   Overcast
3:55 AM 46.4 °F 41.1 °F 46.4 °F 100% 29.78 in 5.0 mi West 11.5 mph - N/A   Overcast
4:15 AM 46.4 °F 41.5 °F 46.4 °F 100% 29.79 in 5.0 mi West 10.4 mph - N/A   Overcast
4:35 AM 44.6 °F 39.2 °F 44.6 °F 100% 29.79 in 4.0 mi West 10.4 mph - N/A   Overcast
4:55 AM 44.6 °F 38.1 °F 44.6 °F 100% 29.79 in 4.0 mi West 13.8 mph - N/A   Overcast
5:15 AM 44.6 °F 38.4 °F 44.6 °F 100% 29.80 in 4.0 mi WNW 12.7 mph - N/A   Overcast
5:35 AM 44.6 °F 39.2 °F 44.6 °F 100% 29.80 in 5.0 mi WNW 10.4 mph - N/A   Overcast
5:55 AM 44.6 °F 39.7 °F 44.6 °F 100% 29.81 in 5.0 mi WNW 9.2 mph - N/A   Overcast
6:15 AM 44.6 °F 39.7 °F 44.6 °F 100% 29.82 in 5.0 mi WNW 9.2 mph - N/A   Overcast
6:36 AM 44.6 °F 39.7 °F 44.6 °F 100% 29.82 in 5.0 mi WNW 9.2 mph 16.1 mph N/A   Overcast
6:55 AM 44.6 °F 38.8 °F 44.6 °F 100% 29.83 in 3.0 mi WNW 11.5 mph - N/A   Overcast
7:16 AM 42.8 °F 38.0 °F 42.8 °F 100% 29.84 in 3.0 mi WNW 8.1 mph - N/A   Overcast
7:35 AM 44.6 °F 40.2 °F 44.6 °F 100% 29.84 in 2.5 mi WNW 8.1 mph - N/A   Overcast
7:55 AM 44.6 °F 39.7 °F 44.6 °F 100% 29.85 in 4.0 mi WNW 9.2 mph - N/A   Overcast
8:15 AM 44.6 °F 38.8 °F 44.6 °F 100% 29.86 in 4.0 mi WNW 11.5 mph - N/A   Overcast
8:35 AM 44.6 °F 38.8 °F 44.6 °F 100% 29.87 in 5.0 mi WNW 11.5 mph - N/A   Overcast
8:55 AM 44.6 °F 39.2 °F 44.6 °F 100% 29.88 in 7.0 mi NW 10.4 mph - N/A   Overcast
9:15 AM 44.6 °F 39.7 °F 44.6 °F 100% 29.88 in 7.0 mi WNW 9.2 mph - N/A   Overcast
9:35 AM 44.6 °F 39.2 °F 44.6 °F 100% 29.89 in 5.0 mi West 10.4 mph - N/A   Overcast
9:55 AM 44.6 °F 38.8 °F 44.6 °F 100% 29.89 in 5.0 mi WNW 11.5 mph - N/A   Overcast
10:15 AM 44.6 °F 39.2 °F 44.6 °F 100% 29.89 in 4.0 mi WNW 10.4 mph - N/A   Overcast
10:35 AM 44.6 °F 38.8 °F 44.6 °F 100% 29.90 in 5.0 mi WNW 11.5 mph - N/A   Overcast
10:55 AM 46.4 °F 40.7 °F 46.4 °F 100% 29.90 in 5.0 mi WNW 12.7 mph 17.3 mph N/A   Overcast
11:15 AM 46.4 °F 41.5 °F 46.4 °F 100% 29.91 in 5.0 mi WNW 10.4 mph - N/A   Overcast
11:35 AM 46.4 °F 40.4 °F 46.4 °F 100% 29.92 in 4.0 mi WNW 13.8 mph - N/A   Overcast
11:55 AM 46.4 °F 41.5 °F 46.4 °F 100% 29.92 in 7.0 mi NW 10.4 mph - N/A   Overcast
12:15 PM 48.2 °F - 48.2 °F 100% 29.92 in 7.0 mi WNW 12.7 mph 16.1 mph N/A   Overcast
12:35 PM 50.0 °F - 48.2 °F 94% 29.92 in 7.0 mi WNW 12.7 mph - N/A   Overcast
12:55 PM 50.0 °F - 48.2 °F 94% 29.92 in 10.0 mi WNW 12.7 mph 16.1 mph N/A   Overcast
1:15 PM 51.8 °F - 50.0 °F 94% 29.92 in 10.0 mi WNW 11.5 mph 17.3 mph N/A   Overcast
1:35 PM 50.0 °F - 48.2 °F 94% 29.93 in 10.0 mi NW 10.4 mph - N/A   Overcast
1:55 PM 50.0 °F - 46.4 °F 87% 29.93 in 10.0 mi NW 9.2 mph - N/A   Overcast
2:15 PM 51.8 °F - 48.2 °F 88% 29.93 in 10.0 mi NW 8.1 mph - N/A   Overcast
2:35 PM 50.0 °F - 48.2 °F 94% 29.93 in 10.0 mi NW 10.4 mph - N/A   Overcast
2:56 PM 51.8 °F - 48.2 °F 88% 29.93 in 10.0 mi NW 11.5 mph - N/A   Overcast
3:15 PM 53.6 °F - 48.2 °F 82% 29.93 in 10.0 mi NW 10.4 mph - N/A   Overcast
3:35 PM 53.6 °F - 50.0 °F 88% 29.93 in 10.0 mi NW 10.4 mph - N/A   Mostly Cloudy
3:55 PM 53.6 °F - 48.2 °F 82% 29.93 in 10.0 mi WNW 11.5 mph - N/A   Overcast
4:15 PM 53.6 °F - 48.2 °F 82% 29.93 in 10.0 mi WNW 9.2 mph - N/A   Overcast
4:36 PM 51.8 °F - 48.2 °F 88% 29.93 in 10.0 mi NW 9.2 mph - N/A   Overcast
4:55 PM 53.6 °F - 48.2 °F 82% 29.93 in 10.0 mi NW 8.1 mph - N/A   Overcast
5:15 PM 53.6 °F - 48.2 °F 82% 29.94 in 10.0 mi NNW 6.9 mph - N/A   Overcast
5:35 PM 55.4 °F - 48.2 °F 77% 29.94 in 10.0 mi NW 11.5 mph - N/A   Overcast
5:55 PM 55.4 °F - 48.2 °F 77% 29.94 in 10.0 mi NW 12.7 mph - N/A   Overcast
6:15 PM 55.4 °F - 48.2 °F 77% 29.95 in 10.0 mi NW 10.4 mph - N/A   Overcast
6:35 PM 55.4 °F - 48.2 °F 77% 29.95 in 10.0 mi NNW 8.1 mph - N/A   Mostly Cloudy
6:55 PM 55.4 °F - 48.2 °F 77% 29.95 in 10.0 mi NW 6.9 mph - N/A   Overcast
7:15 PM 55.4 °F - 48.2 °F 77% 29.96 in 10.0 mi NNW 6.9 mph - N/A   Overcast
7:36 PM 55.4 °F - 48.2 °F 77% 29.96 in 10.0 mi NW 9.2 mph - N/A   Overcast
7:55 PM 55.4 °F - 48.2 °F 77% 29.96 in 10.0 mi NNW 5.8 mph - N/A   Mostly Cloudy
8:15 PM 53.6 °F - 48.2 °F 82% 29.97 in 10.0 mi NNW 6.9 mph - N/A   Scattered Clouds
8:35 PM 51.8 °F - 46.4 °F 82% 29.97 in 10.0 mi NW 4.6 mph - N/A   Clear
8:55 PM 51.8 °F - 46.4 °F 82% 29.98 in 10.0 mi WNW 3.5 mph - N/A   Clear
9:15 PM 48.2 °F - 46.4 °F 93% 29.98 in 10.0 mi West 3.5 mph - N/A   Clear
9:35 PM 46.4 °F 45.2 °F 46.4 °F 100% 29.98 in 10.0 mi West 3.5 mph - N/A   Clear
9:55 PM 44.6 °F 42.2 °F 44.6 °F 100% 29.99 in 10.0 mi West 4.6 mph - N/A   Clear
10:15 PM 44.6 °F 43.1 °F 44.6 °F 100% 29.99 in 10.0 mi West 3.5 mph - N/A   Clear
10:35 PM 44.6 °F - 44.6 °F 100% 30.00 in 10.0 mi Calm Calm - N/A   Clear
10:55 PM 44.6 °F - 44.6 °F 100% 30.01 in 10.0 mi Calm Calm - N/A   Clear
11:15 PM 42.8 °F - 42.8 °F 100% 30.01 in 10.0 mi Calm Calm - N/A   Clear
11:35 PM 42.8 °F - 42.8 °F 100% 30.01 in 10.0 mi Calm Calm - N/A   Clear
11:55 PM 42.8 °F - 42.8 °F 100% 30.01 in 10.0 mi Calm Calm - N/A   Clear